Regional Weather Roundup
Issued by NWS

Home | Current Version | Previous Version | Graphics & Text | Print | Product List | Glossary On
Versions: 1 2 3 4 5 6 7 8 9 10 11 12 13 14 15 16 17 18 19 20 21 22 23 24 25 26 27 28 29 30 31 32 33 34 35 36 37 38 39 40 41 42 43 44 45 46 47 48 49 50
000
ASUS43 KLOT 231108
RWRIL

ILLINOIS REGIONAL WEATHER ROUNDUP
NATIONAL WEATHER SERVICE CHICAGO/ROMEOVILLE IL
500 AM CST TUE JAN 23 2018

NOTE: "FAIR" INDICATES FEW OR NO CLOUDS BELOW 12,000 FEET WITH NO
SIGNIFICANT WEATHER AND/OR OBSTRUCTIONS TO VISIBILITY.

* THESE STATIONS ARE NOT UNDER NWS QUALITY CONTROL. THEY ALSO MAY NOT
  REPORT WEATHER SUCH AS PRECIPITATION OR FOG.

ILZ001-002-007-009-015-016-024-231200-
NORTHWEST ILLINOIS

CITY           SKY/WX    TMP DP  RH WIND       PRES   REMARKS
MOLINE         CLOUDY    35  32  88 NW14      29.69R WCI  26
STERLING*      LGT SNOW  33  31  92 NW12      29.66R FOG     WCI  24
SAVANNA*       CLOUDY    32  31  96 NW9       29.68R WCI  25
$$

ILZ003-004-008-010-011-017-018-231200-
NORTH CENTRAL ILLINOIS

CITY           SKY/WX    TMP DP  RH WIND       PRES   REMARKS
ROCKFORD       LGT SNOW  31  29  92 N13       29.64R FOG     WCI  21
FREEPORT*      CLOUDY    31  30  95 N15       29.66R FOG     WCI  20
ROCHELLE*      LGT SNOW  32  31  96 NW15      29.63R WCI  22
DE KALB*       LGT SNOW  32  31  97 NW10G20   29.61R WCI  23
PERU*          CLOUDY    33  32  95 NW13      29.64R WCI  24
$$

ILZ005-006-012>014-019>023-231200-
NORTHEAST ILLINOIS

CITY           SKY/WX    TMP DP  RH WIND       PRES   REMARKS
CHICAGO-OHARE  LGT SNOW  33  30  88 NW14      29.56R FOG     WCI  23
CHICAGO-MIDWAY LGT SNOW  34  33  96 W9        29.57R FOG     WCI  27
AURORA         LGT SNOW  33  31  92 NW16      29.59R FOG     WCI  23
LANSING*       LGT RAIN  35  34  97 W9        29.58R WCI  28
JOLIET*        LGT RAIN  35  34  97 W7        29.60R WCI  29
WAUKEGAN       LGT SNOW  31  30  96 NW7       29.56R FOG     WCI  24
DUPAGE AIRPORT LGT SNOW  32  31  96 NW12      29.58R FOG     WCI  23
KANKAKEE*      CLOUDY   N/A N/A N/A W13       29.62R
WHEELING       LGT SNOW  33  31  92 NW12G20   29.58R FOG     WCI  24
MORRIS*        DRIZZLE   35  33  93 W13G18    29.60R WCI  26
ROMEOVILLE*    FLURRIES  33  32  97 W12       29.59R WCI  24
NORTHERLY ISL    N/A     34  32  92 W7          N/A  WCI  28
$$

LMZ740>746-231200-
SOUTHERN LAKE MICHIGAN

STATION/POSITION SKY/WX   TEMP    WIND        PRES    VSBY  WAVE
                          AIR SEA DIR/SP/G                  HT/PER
                          (F)     (DEG/KT/KT) (MB)    (MI)  (FT/S)
HARRISON CRIB              35     260/ 13/ 15   N/A
BURNHAM HARBOR             34     240/  6/ 11   N/A
CALUMET HARBOR             35     240/  7/ 12 1000.8R
BURNS HARBOR               37     230/ 13/ 17 1001.7R
MICHIGAN CITY              36     220/ 18/ 19   N/A
$$

ILZ025>027-034>036-040-047-049-050-058-095>099-231200-
WEST-CENTRAL ILLINOIS

CITY           SKY/WX    TMP DP  RH WIND       PRES   REMARKS
QUINCY         CLOUDY    34  31  88 NW22G28   29.77R WCI  22
GALESBURG*     CLOUDY    35  35  99 NW13G18   29.70R WCI  26
MACOMB*        CLOUDY    35  34  98 NW18      29.74R WCI  24
JACKSONVILLE*  CLOUDY    35  34  96 W13G18    29.74R FOG     WCI  26
PITTSFIELD*    CLOUDY    35  34  95 W15G23    29.78R WCI  25
$$

ILZ028>032-037-038-041>044-048-051>054-059>061-231200-
CENTRAL ILLINOIS

CITY           SKY/WX    TMP DP  RH WIND       PRES   REMARKS
PONTIAC        CLOUDY    35  35  99 W9        29.64R WCI  28
BLOOMINGTON    CLOUDY    33  32  96 W12       29.66R FOG     WCI  24
DECATUR        CLOUDY    34  34 100 W10       29.69R WCI  26
PEORIA         CLOUDY    36  34  92 W13       29.67R FOG     WCI  27
LACON*         DRIZZLE   35  34  96 NW13      29.65R WCI  26
LINCOLN*       CLOUDY    35  35 100 W5        29.69R WCI  31
SPRINGFIELD    CLOUDY    36  34  92 W13       29.71R WCI  27
TAYLORVILLE    CLOUDY    34  33  96 W12       29.73R WCI  25
$$

ILZ033-039-045-046-055>057-062-063-231200-
EAST-CENTRAL ILLINOIS

CITY           SKY/WX    TMP DP  RH WIND       PRES   REMARKS
CHAMPAIGN      LGT SNOW  33  32  96 SW14      29.67R FOG     WCI  23
DANVILLE*      CLOUDY    33  32  96 W16G22    29.63R WCI  23
RANTOUL*       CLOUDY    35  34  96 W12       29.66R WCI  26
MATTOON        CLOUDY    33  32  96 W12       29.69R WCI  24
PARIS*         LGT SNOW  32  32 100 SW9       29.70R WCI  24
$$

ILZ079-100>102-231200-
SOUTHWEST ILLINOIS

CITY           SKY/WX    TMP DP  RH WIND       PRES   REMARKS
ALTON          CLOUDY    34  34  99 W20G28    29.78R FOG     WCI  23
BELLEVILLE     CLOUDY    36  31  80 W14G25    29.79R WCI  27
CAHOKIA*       CLOUDY    36  30  79 W13G25    29.81R WCI  27
SPARTA*        CLOUDY    36  32  85 W18G24    29.83R WCI  25
$$

ILZ064>066-069>071-074>076-080>082-084>086-088>090-092>094-231200-
SOUTH-CENTRAL ILLINOIS

CITY           SKY/WX    TMP DP  RH WIND       PRES   REMARKS
CARBONDALE     CLOUDY    37  30  75 W15G30    29.83R WCI  28
CAIRO*         CLOUDY    38  30  72 W9        29.88R WCI  32
EFFINGHAM*     CLOUDY    35  35  99 SW12G18   29.75R FOG     WCI  27
MARION         CLOUDY    37  29  71 W10G17    29.84R WCI  30
MT. VERNON     CLOUDY    37  31  78 W14G22    29.79R WCI  28
CENTRALIA*     CLOUDY    37  33  87 W15G23    29.78R WCI  27
SALEM*         CLOUDY    37  32  81 W17G24    29.77R WCI  28
METROPOLIS*    CLOUDY    40  30  67 SW10G16   29.86R
$$

ILZ067-068-072-073-078-083-087-091-231200-
SOUTHEAST ILLINOIS

CITY           SKY/WX    TMP DP  RH WIND       PRES   REMARKS
LAWRENCEVILLE  CLOUDY    37  32  82 SW21G28   29.75R WCI  26
FLORA*         CLOUDY    38  32  81 W15G21    29.76R WCI  29
FAIRFIELD*     CLOUDY    37  32  81 SW10G21   29.78R WCI  30
HARRISBURG*    CLOUDY    38  31  76 W12       29.83R WCI  31
ROBINSON*      LGT RAIN  34  32  91 SW16G23   29.74R WCI  24
CARMI*         CLOUDY    38  31  76 W21G28    29.80R WCI  28
$$

ABBREVIATIONS USED IN REMARKS
   TC - TEMPERATURE IN CELSIUS
  WCI - WIND CHILL INDEX
   HX - HEAT INDEX
  VSB - VISIBILITY
$$




USA.gov is the U.S. government's official web portal to all federal, state and local government web resources and services.